Regional Weather Roundup
Issued by NWS Charleston, SC

Current Version | Previous Version | Graphics & Text | Print | Product List | Glossary On
Versions: 1 2 3 4 5 6 7 8 9 10 11 12 13 14 15 16 17 18 19 20 21 22 23 24 25 26 27 28 29 30 31 32 33 34 35 36 37 38 39 40 41 42 43 44 45 46 47 48 49 50
000 ASUS42 KCHS 270627 RWRCHS Regional Weather Roundup National Weather Service Charleston SC 200 AM EDT FRI APR 27 2018 NOTE: "fair" indicates few or no clouds below 12,000 feet with no significant weather and/or obstructions to visibility. Not all stations are quality controlled. Use data with caution, especially dewpoint observations. SCZ027-030-031-034>040-042>050-270700- ...Southeast South Carolina... CITY SKY/WX TMP DP RH WIND PRES REMARKS N Charleston MOCLDY 66 64 93 CALM 29.79F 6HR MIN TEMP: 64; 6HR MAX TEMP: 68; 6HR PCP: 0.07; Waterfront Prk NOT AVBL Mount Pleasant MOCLDY 64 64 100 CALM 29.79F Johns Island MOCLDY 68 66 94 S10 29.79F Pinopolis N/A 63 63 100 CALM 29.71F Moncks Corner MOCLDY 61 59 94 CALM 29.78F Summerville MOCLDY 63 61 94 CALM 29.79F Beaufort MCAS CLOUDY 68 65 90 SW5 29.79F 6HR MIN TEMP: 67; 6HR MAX TEMP: 70; Beaufort Arpt MOCLDY 68 63 83 SW5 29.78F Hilton Head Is MOCLDY 70 64 83 S10G18 29.80F Walterboro CLOUDY 63 61 94 CALM 29.80S Allendale FOG 59 59 100 CALM 29.78F VSB 1 ...Southern Midlands and Pee Dee... CITY SKY/WX TMP DP RH WIND PRES REMARKS Georgetown CLOUDY 61 61 100 CALM 29.81S Kingstree CLOUDY 61 61 100 CALM 29.79F Orangeburg CLOUDY 61 58 90 N6 29.80F 6HR MIN TEMP: 61; 6HR MAX TEMP: 68; 6HR PCP: 0.03; Barnwell MOCLDY 57 57 100 CALM 29.79F Aiken MOCLDY 55 55 100 W3 29.84S Manning RAIN 57 55 94 W7 29.80S Columbia MOCLDY 60 58 92 CALM 29.80F 6HR MIN TEMP: 60; 6HR MAX TEMP: 69; 6HR PCP: 0.15; Sumter HVY RAIN 59 55 88 SW7 29.80F 6HR MIN TEMP: 59; 6HR MAX TEMP: 69; 6HR PCP: 0.14; Florence LGT RAIN 62 59 90 W5 29.81R 6HR MIN TEMP: 62; 6HR MAX TEMP: 72; 6HR PCP: 0.02; Myrtle Beach FAIR 63 58 83 CALM 29.81F N Myrtle Beach CLOUDY 64 59 83 SW3 29.80F 6HR MIN TEMP: 64; 6HR MAX TEMP: 68; $$ GAZ063-065-086>088-099>101-113>116-118-119-134>141-150-270700- ...Southeast Georgia... CITY SKY/WX TMP DP RH WIND PRES REMARKS Savannah Arpt FAIR 62 61 96 W5 29.81S 6HR MIN TEMP: 62; 6HR MAX TEMP: 71; Hunter AAF FAIR 67 62 83 SW6 29.78S 6HR MIN TEMP: 67; 6HR MAX TEMP: 70; Fort Stewart FAIR 62 58 88 CALM 29.80S 6HR MIN TEMP: 62; 6HR MAX TEMP: 72; 6HR PCP: TRACE; Statesboro FOG 59 32 35 CALM 29.80F VSB 1/2 Sylvania FOG 59 59 100 CALM 29.80F VSB 1/2 Claxton FAIR 61 60 97 CALM 29.81F ...CSRA, Central and far Southeast Georgia... CITY SKY/WX TMP DP RH WIND PRES REMARKS Thomson FOG 52 51 99 CALM 29.86F VSB 1/2 Augusta-Bush MOCLDY 57 57 100 CALM 29.80F FOG 6HR MIN TEMP: 56; 6HR MAX TEMP: 64; 6HR PCP: 0.04; Augusta-Daniel FAIR 59 56 89 NW5 29.82S Swainsboro MOCLDY 57 57 100 W3 29.83S Vidalia CLOUDY 61 57 88 CALM 29.82F Eastman CLOUDY 60 54 79 CALM 29.86F HAZE Hazlehurst LGT RAIN 63 60 90 SW3 29.82F Alma CLOUDY 64 62 93 W3 29.83F 6HR MIN TEMP: 64; 6HR MAX TEMP: 75; 6HR PCP: 0.18; Waycross CLOUDY 68 65 90 SW8 29.82F Jesup MOCLDY 66 59 77 CALM 29.82F Baxley CLOUDY 61 61 100 W3 29.83S Brunswick FAIR 66 59 77 SW6 29.83F Saint Simons FAIR 68 62 81 SW12 29.83F 6HR MIN TEMP: 68; 6HR MAX TEMP: 70; $$ SCZ027-028-034-036>038-045-046-048>050-GAZ119-141-270700- ...Lake and Supplemental Coastal Observations... STATION/POSITION TIME TEMP WIND PRES WAVE SWELL AIR SEA DIR/SP/G HT/PER HT/PER/DIR (UTC) (F) (DEG/KT/KT) (MB) (FT/S) (FT/S/D) Winyah Bay 0545 62 350/ 1 1009.0F Lake Murray NOT AVBL ACE Basin NERRS 0545 67 CALM N/A Fort Pulaski 0600 69 67 220/ 8/ 13 1009.2 Sapelo Island 0600 69 250/ 12 1010.0 $$ ANZ835-935-AMZ111-154-330-350-352-354-370-450-454-472-270700- ...C-MAN and Buoy Observations... STATION/POSITION TIME TEMP WIND PRES WAVE SWELL AIR SEA DIR/SP/G HT/PER HT/PER/DIR (UTC) (F) (DEG/KT/KT) (MB) (FT/S) (FT/S/D) Buoy 41004 0610 70 180/ 6/ 8 1008.9 Buoy 41008 0550 69 66 210/ 14/ 16 1009.4F 3/ 8 2/ 70/ 8 Folly Beach CMAN 0600 69 180/ 8/ 10 1009.3F Capers Nearshore 0608 68 67 190/ 6/ 8 1009.4F Fripp Nearshore 0608 67 65 210/ 14/ 21 1008.3F STATION/POSITION TIME TEMP WIND PRES WAVE SWELL AIR SEA DIR/SP/G HT/PER HT/PER/DIR (UTC) (F) (DEG/KT/KT) (MB) (FT/S) (FT/S/D) 5E St. Marys GA 0600 69 N/A 3/ 9 Frying Pan Buoy 0610 69 70 260/ 4/ 6 1009.3 Buoy 41025 0610 75 71 190/ 23/ 29 1009.4 Cape Lookout NC 0600 160/ 5/ 5 1009.6F Buoy 41002 0610 72 73 170/ 17/ 21 1012.3 Buoy 41010 0610 76 76 180/ 14/ 17 1012.1 St Augustine FL 0600 66 69 230/ 6/ 8 1011.6F $$

USA.gov is the U.S. government's official web portal to all federal, state and local government web resources and services.